{"data":{"norad_id":62028,"intl_designator":"2024-214A","name":"GSAT-N2 (GSAT-20)","alt_names":[],"object_type":"PAYLOAD","status":"ACTIVE","operator":null,"country":"IND","launch_date":"2024-11-18","launch_site_code":"AFETR","launch_vehicle":null,"mission":null,"orbit_class":"UNKNOWN","rcs_meters":null,"size_class":null,"mass_kg":null,"dimensions":null,"purposes":["comms"],"wikipedia_slug":null,"has_3d_model":false,"image_url":null,"decayed_at":null,"tle_current":{"epoch":"2026-05-25T04:04:00.403104Z","epoch_age_seconds":53559,"freshness":"FRESH","line1":"1 62028U 24214A   26145.16944911 -.00000022  00000+0  00000+0 0  9997","line2":"2 62028   0.0350 249.9629 0001953 173.5471 308.2057  1.00273253  5660","mean_motion":1.00273253,"eccentricity":0.0001953,"inclination_deg":0.035,"raan_deg":249.9629,"arg_perigee_deg":173.5471,"mean_anomaly_deg":308.2057,"bstar":0,"rev_number":566,"period_min":1436.0758795768,"perigee_km":35777.948740741,"apogee_km":35794.418124302,"semimajor_km":42164.320432521,"source":"CELESTRAK","updated_at":"2026-05-25T13:38:14.148836Z"}}}